Monte Terminillo, Italy

5:27 PM CEST on April 25, 2017 (GMT +0200)
Monte Terminillo

Weather History for LIRK - May, 2013

Change the Weather History Date:

Thursday, May 2, 2013

  Actual Average Record
Temperature  
Mean Temperature 46 °F -  
Max Temperature 48 °F 47 °F 66 °F (2003)
Min Temperature 44 °F 38 °F 30 °F (2016)
Degree Days  
Heating Degree Days 19    
Moisture  
Dew Point 45 °F    
Average Humidity 98    
Maximum Humidity 100    
Minimum Humidity 87    
Precipitation  
Precipitation 0.00 in 0.10 in - ()
Sea Level Pressure  
Sea Level Pressure 30.15 in    
Wind  
Wind Speed 13 mph ()    
Max Wind Speed 21 mph    
Max Gust Speed -    
Visibility 0.3 miles    
Events Fog , Rain    
Averages and records for this station are not official NWS values.
T = Trace of Precipitation, MM = Missing Value Source: Averaged Metar Reports

Daily Weather History Graph

Daily Weather History Graph

Search for Another Location

Airport or City:

Trip Planner

Search our weather history database for the weather conditions in past years. The results will help you decide how hot, cold, wet, or windy it might be!

Date:

Astronomy

May. 02, 2013 Rise Set
Actual Time 6:01 AM CEST 8:09 PM CEST
Civil Twilight 5:30 AM CEST 8:39 PM CEST
Nautical Twilight 4:53 AM CEST 9:17 PM CEST
Astronomical Twilight 4:11 AM CEST 9:59 PM CEST
Moon 1:47 AM CEST (5/2) 12:30 PM CEST (5/2)
Length of Visible Light 15h 09m
Length of Day
14h 07m
Waning Gibbous, 51% of the Moon is Illuminated
May 2
Waning Gibbous
May 2
Last Quarter
May 10
New
May 18
First Quarter
May 25
Full

Hourly Weather History & Observations

Time (CEST) Temp. Dew Point Humidity Pressure Visibility Wind Dir Wind Speed Gust Speed Precip Events Conditions
12:55 AM 48.2 °F 48.2 °F 100% 30.27 in 0.0 mi North - - N/A Fog , Rain Light Rain
1:55 AM 48.2 °F 48.2 °F 100% 30.27 in 0.0 mi North - - N/A Fog , Rain Light Rain
2:00 AM 47 °F 47 °F 100%  in 0 mi NE 20.7 mph - -  
2:55 AM 46.4 °F 46.4 °F 100% 30.24 in 0.0 mi North - - N/A Fog , Rain Light Rain
3:55 AM 46.4 °F 46.4 °F 100% 30.21 in 0.0 mi North - - N/A Fog , Rain Light Rain
4:55 AM 46.4 °F 44.6 °F 93% 30.18 in 0.0 mi North - - N/A Fog Fog
5:55 AM 46.4 °F 46.4 °F 100% 30.18 in - North - - N/A   Scattered Clouds
6:55 AM 46.4 °F 46.4 °F 100% 30.18 in - North - - N/A   Scattered Clouds
7:55 AM 46.4 °F 46.4 °F 100% 30.15 in - North - - N/A Rain Light Rain
8:00 AM 46 °F 46 °F 100%  in 6 mi NE 17.3 mph - -   Overcast
8:55 AM 44.6 °F 44.6 °F 100% 30.15 in 0.0 mi North - - N/A Fog , Rain Light Rain
9:55 AM 44.6 °F 44.6 °F 100% 30.15 in 0.0 mi North - - N/A Fog , Rain Light Rain
10:55 AM 44.6 °F 44.6 °F 100% 30.15 in 0.0 mi North - - N/A Fog , Rain Light Rain
11:55 AM 44.6 °F 44.6 °F 100% 30.15 in 0.0 mi North - - N/A Fog Fog
12:55 PM 44.6 °F 44.6 °F 100% 30.15 in 0.0 mi North - - N/A Fog Fog
1:55 PM 44.6 °F 44.6 °F 100% 30.15 in 0.0 mi North - - N/A Fog , Rain Light Rain
2:00 PM 45 °F 45 °F 100%  in 0 mi NE 13.8 mph - -  
2:55 PM 44.6 °F 44.6 °F 100% 30.15 in 0.0 mi North - - N/A Fog Fog
3:55 PM 44.6 °F 44.6 °F 100% 30.12 in 0.0 mi North - - N/A Fog Fog
4:55 PM 46.4 °F 44.6 °F 93% 30.12 in - North - - N/A   Overcast
5:55 PM 46.4 °F 46.4 °F 100% 30.12 in 0.0 mi North - - N/A Fog , Rain Light Rain
6:55 PM 46.4 °F 44.6 °F 93% 30.12 in 0.0 mi North - - N/A Fog , Rain Light Rain
7:55 PM 46.4 °F 46.4 °F 100% 30.09 in 0.0 mi North - - N/A Fog , Rain Light Rain
8:00 PM 46 °F 46 °F 99%  in 0 mi NE 13.8 mph - -  
8:55 PM 46.4 °F 46.4 °F 100% 30.09 in - North - - N/A   Mostly Cloudy
9:55 PM 44.6 °F 42.8 °F 93% 30.09 in - North - - N/A   Scattered Clouds
10:55 PM 44.6 °F 42.8 °F 93% 30.09 in - North - - N/A   Clear
11:55 PM 44.6 °F 41.0 °F 87% 30.09 in - North - - N/A   Clear